Monticello, KY

9:23 PM EST on December 15, 2019 (GMT -0500)
Wayne County

Weather History for KEKQ - September, 2019

Change the Weather History Date:

Sunday, September 1, 2019

  Actual Average Record
Temperature  
Mean Temperature 73 °F -  
Max Temperature 89 °F 84 °F 100 °F (1957)
Min Temperature 57 °F 61 °F -73 °F (2013)
Cooling Degree Days 8    
Growing Degree Days 23 (Base 50)    
Moisture  
Dew Point 63 °F    
Average Humidity 86    
Maximum Humidity 100    
Minimum Humidity 39    
Precipitation  
Precipitation 0.00 in - - ()
Sea Level Pressure  
Sea Level Pressure 30.14 in    
Wind  
Wind Speed 6 mph ()    
Max Wind Speed 17 mph    
Max Gust Speed 23 mph    
Visibility 6.0 miles    
Events Fog    
Averages and records for this station are not official NWS values.
T = Trace of Precipitation, MM = Missing Value Source: Averaged Metar Reports

Daily Weather History Graph

Daily Weather History Graph

Search for Another Location

Airport or City:

Astronomy

Sep. 01, 2019 Rise Set
Actual Time 6:10 AM CDT 7:08 PM CDT
Civil Twilight 5:43 AM CDT 7:34 PM CDT
Nautical Twilight 5:12 AM CDT 8:05 PM CDT
Astronomical Twilight 4:39 AM CDT 8:38 PM CDT
Moon 8:36 AM CDT (9/1) 8:59 PM CDT (9/1)
Length of Visible Light 13h 50m
Length of Day
12h 57m
Waxing Crescent, 8% of the Moon is Illuminated
Sep 1
Waxing Crescent
Sep 5
First Quarter
Sep 13
Full
Sep 21
Last Quarter
Sep 28
New

Hourly Weather History & Observations

Time (CDT) Temp. Heat Index Dew Point Humidity Pressure Visibility Wind Dir Wind Speed Gust Speed Precip Events Conditions
12:56 AM 64.0 °F - 64.0 °F 100% 30.13 in 10.0 mi West 10.4 mph - N/A   Partly Cloudy
1:56 AM 61.0 °F - 61.0 °F 100% 30.13 in 9.0 mi North - - N/A   Clear
1:59 AM 60.8 °F - 60.8 °F 100% 30.16 in 1.8 mi Calm Calm - N/A   Clear
2:06 AM 60.8 °F - 60.8 °F 100% 30.16 in 0.8 mi Calm Calm - N/A   Mist
2:09 AM 60.8 °F - 60.8 °F 100% 30.16 in 1.2 mi West 3.5 mph - N/A   Scattered Clouds
2:14 AM 60.8 °F - 60.8 °F 100% 30.16 in 3.0 mi NW 9.2 mph - N/A   Scattered Clouds
2:49 AM 60.8 °F - 60.8 °F 100% 30.16 in 1.5 mi West 9.2 mph - N/A   Scattered Clouds
2:51 AM 60.8 °F - 60.8 °F 100% 30.16 in 0.8 mi NW 8.1 mph - N/A   Mist
2:56 AM 61.0 °F - 61.0 °F 100% 30.13 in 0.2 mi WNW 9.2 mph - N/A Fog Fog
3:04 AM 60.8 °F - 60.8 °F 100% 30.16 in 0.8 mi Variable 6.9 mph - N/A   Mist
3:06 AM 60.8 °F - 60.8 °F 100% - 2.0 mi Variable 5.8 mph - N/A   Scattered Clouds
3:13 AM 60.8 °F - 60.8 °F 100% 30.16 in 1.2 mi Calm Calm - N/A   Mostly Cloudy
3:20 AM 60.8 °F - 60.8 °F 100% 30.16 in 1.2 mi Calm Calm - N/A   Scattered Clouds
3:24 AM 60.8 °F - 60.8 °F 100% 30.16 in 3.0 mi West 5.8 mph - N/A   Partly Cloudy
3:38 AM 60.8 °F - 60.8 °F 100% 30.16 in 3.0 mi Calm Calm - N/A   Mostly Cloudy
3:47 AM 60.8 °F - 60.8 °F 100% 30.15 in 1.2 mi West 8.1 mph - N/A   Mostly Cloudy
3:51 AM 60.8 °F - 60.8 °F 100% 30.15 in 0.8 mi West 9.2 mph - N/A   Mostly Cloudy
3:56 AM 60.1 °F - 60.1 °F 100% 30.13 in 0.8 mi West 8.1 mph - N/A   Mostly Cloudy
4:04 AM 60.8 °F - 60.8 °F 100% 30.16 in 1.2 mi West 10.4 mph - N/A   Scattered Clouds
4:13 AM 60.8 °F - 60.8 °F 100% 30.15 in 3.0 mi North 8.1 mph - N/A   Partly Cloudy
4:56 AM 59.0 °F - 59.0 °F 100% 30.13 in 7.0 mi Calm Calm - N/A   Clear
5:56 AM 57.9 °F - 57.9 °F 100% 30.14 in 9.0 mi Calm Calm - N/A   Clear
6:56 AM 61.0 °F - 61.0 °F 100% 30.16 in 9.0 mi North - - N/A   Clear
7:56 AM 70.0 °F - 66.9 °F 90% 30.17 in 10.0 mi North 8.1 mph - N/A   Clear
8:56 AM 77.0 °F - 66.9 °F 71% 30.18 in 10.0 mi NE 6.9 mph - N/A   Partly Cloudy
9:56 AM 84.0 °F 86.3 °F 66.0 °F 55% 30.19 in 10.0 mi WSW 17.3 mph - N/A   Partly Cloudy
10:34 AM 86.0 °F 88.2 °F 66.2 °F 51% 30.21 in 10.0 mi WSW 17.3 mph 23.0 mph N/A   Clear
10:56 AM 87.1 °F 89.9 °F 66.9 °F 51% 30.18 in 10.0 mi Variable 5.8 mph - N/A   Clear
11:56 AM 86.0 °F 90.1 °F 69.1 °F 57% 30.16 in 10.0 mi West 10.4 mph 20.7 mph N/A   Partly Cloudy
12:56 PM 86.0 °F 89.4 °F 68.0 °F 55% 30.14 in 10.0 mi West 17.3 mph - N/A   Partly Cloudy
1:56 PM 87.1 °F 88.9 °F 64.9 °F 48% 30.12 in 10.0 mi Variable 6.9 mph - N/A   Clear
2:56 PM 89.1 °F 90.3 °F 64.0 °F 43% 30.09 in 10.0 mi Variable 5.8 mph - N/A   Clear
3:56 PM 89.1 °F 90.3 °F 64.0 °F 43% 30.07 in 6.0 mi West 8.1 mph - N/A   Haze
4:56 PM 89.1 °F 89.0 °F 61.0 °F 39% 30.07 in 9.0 mi NE 5.8 mph - N/A   Partly Cloudy
5:56 PM 87.1 °F 88.9 °F 64.9 °F 48% 30.06 in 10.0 mi East 4.6 mph - N/A   Clear
6:56 PM 75.9 °F - 69.1 °F 79% 30.07 in 10.0 mi NNE 8.1 mph - N/A   Partly Cloudy
7:56 PM 71.1 °F - 66.9 °F 87% 30.08 in 10.0 mi West 4.6 mph - N/A   Clear
8:56 PM 66.9 °F - 66.0 °F 97% 30.09 in 10.0 mi WNW 9.2 mph - N/A   Clear
9:56 PM 66.0 °F - 66.0 °F 100% 30.10 in 10.0 mi West 9.2 mph - N/A   Clear
10:56 PM 66.0 °F - 66.0 °F 100% 30.09 in 10.0 mi West 9.2 mph - N/A   Clear
11:56 PM 64.9 °F - 64.9 °F 100% 30.09 in 10.0 mi West 9.2 mph - N/A   Clear